• Processing (Info)

  • MPEC 2015-F65 : 2015 FB35

    The following Minor Planet Electronic Circular may be linked-to from your own Web pages, but must not otherwise be redistributed electronically.

    A form allowing access to any MPEC is at the bottom of this page.


    Read MPEC 2015-F64 Read MPEC 2015-F66


    M.P.E.C. 2015-F65                                Issued 2015 Mar. 23, 14:09 UT
    
         The Minor Planet Electronic Circulars contain information on unusual
             minor planets and routine data on comets.  They are published
       on behalf of Commission 20 of the International Astronomical Union by the
              Minor Planet Center, Smithsonian Astrophysical Observatory,
                              Cambridge, MA 02138, U.S.A.
    
                 Prepared using the Tamkin Foundation Computer Network
    
                                  MPC@CFA.HARVARD.EDU
                URL https://www.minorplanetcenter.net/    ISSN 1523-6714
    
                                       2015 FB35
    
    Observations:
         K15F35B* C2015 03 16.53042 13 43 00.853-31 46 23.48         21.5 wLEF065F51
         K15F35B  C2015 03 16.54039 13 43 00.533-31 46 06.43         21.5 wLEF065F51
         K15F35B  C2015 03 16.55033 13 43 00.216-31 45 49.36         21.6 wLEF065F51
         K15F35B _C2015 03 17.56105113 42 31.119-31 16 49.13         20.7 RtEF065568
         K15F35B _C2015 03 17.56237213 42 31.070-31 16 46.86         20.6 RtEF065568
         K15F35B KC2015 03 20.56495 13 40 51.90 -29 46 42.7          20.6 RtEF065474
         K15F35B KC2015 03 20.56847 13 40 51.79 -29 46 36.1          20.6 RtEF065474
         K15F35B KC2015 03 20.57199 13 40 51.65 -29 46 30.1          20.9 RtEF065474
         K15F35B KC2015 03 20.57551 13 40 51.51 -29 46 23.5          20.6 RtEF065474
         K15F35B KC2015 03 23.38395 13 39 02.33 -28 17 56.6          20.7 RoEF065291
         K15F35B KC2015 03 23.38591 13 39 02.27 -28 17 52.7          20.6 RoEF065291
         K15F35B KC2015 03 23.38788 13 39 02.16 -28 17 49.0          20.9 RoEF065291
    
    Observer details:
    291 LPL/Spacewatch II.  Observer R. A. Mastaler.  1.8-m f/2.7 reflector + CCD.
    474 Mount John Observatory, Lake Tekapo.  Observers A. C. Gilmore,
        P. M. Kilmartin.  Measurer P. M. Kilmartin.  1.0-m f/7.7 reflector + CCD.
    568 Mauna Kea.  Observers R. J. Wainscoat, D. Woodworth.  Measurers M. Micheli,
        R. J. Wainscoat.  3.6-m Canada-France-Hawaii Telescope + CCD.
    F51 Pan-STARRS 1, Haleakala.  Observers B. Gibson, T. Goggia, N. Primak,
        A. Schultz, M. Willman.  Measurers K. Chambers, S. Chastel, L. Denneau,
        H. Flewelling, M. Huber, E. Magnier, E. Schunova, R. Wainscoat, C. Waters,
        R. Weryk.  1.8-m Ritchey-Chretien + CCD.
    
    Orbital elements:
    2015 FB35                                                Earth MOID = 0.5215 AU
    Epoch 2015 June 27.0 TT = JDT 2457200.5                 MPC
    M  46.07894              (2000.0)            P               Q
    n   0.23743899     Peri.  271.97300     -0.48424316     -0.84838674
    a   2.5828629      Node   210.16800     +0.87068317     -0.49133654
    e   0.5163865      Incl.   25.18980     -0.08613578     -0.19704911
    P   4.15           H   19.8           G   0.15           U   6
    Residuals in seconds of arc
    150316 F51  0.1-  0.1-    150317 568  0.1-  0.2-    150320 474  0.2+  0.1-
    150316 F51  0.0   0.0     150320 474  0.3-  0.2+    150323 291  0.2-  0.0
    150316 F51  0.2+  0.1+    150320 474  0.1+  0.3+    150323 291  0.2+  0.1+
    150317 568  0.1-  0.1-    150320 474  0.1+  0.2-    150323 291  0.0   0.1-
    
    Ephemeris:
    2015 FB35                a,e,i = 2.58, 0.52, 25                  q = 1.2491
    Date    TT    R. A. (2000) Decl.     Delta      r     Elong.  Phase     V
    2015 02 21    13 39 48.8 -39 46 26   0.7647  1.4482   110.7    39.7    21.6
    ...
    2015 03 08    13 45 16.6 -35 23 56   0.7216  1.5303   125.7    31.8    21.4
    ...
    2015 03 16    13 43 15.1 -32 01 12   0.7063  1.5770   135.3    26.3    21.2
    ...
    2015 03 22    13 39 57.8 -29 02 01   0.7012  1.6131   143.1    21.7    21.1
    2015 03 23    13 39 18.1 -28 30 09   0.7010  1.6192   144.5    20.9    21.1
    2015 03 24    13 38 36.8 -27 57 48   0.7010  1.6253   145.9    20.1    21.1
    ...
    2015 03 30    13 34 03.0 -24 34 52   0.7057  1.6623   154.2    15.2    21.0
    ...
    2015 04 07    13 27 26.0 -19 51 31   0.7256  1.7125   165.3     8.6    20.9
    ...
    2015 04 22    13 16 29.8 -11 28 44   0.8098  1.8082   170.1     5.5    21.1
    
    A. U. Tomatic                (C) Copyright 2015 MPC           M.P.E.C. 2015-F65
    

    Read MPEC 2015-F64 Read MPEC 2015-F66


    MPEC number:

    Enter an MPEC number in one of the following forms:

    • 1997-B01 (the full form)
    • J97B01 (the packed version of the full form)
    • B01 (the abbreviated form)